Location: Antoign�
(47.0844°N, 0.1131°W)
Time: 08:20:19
(UTC+00:00)

Cosmos 1943 Rocket - Pass Details

Date: 03 March 2021
Orbit: 811 x 844 km, 71.0° (Epoch: 11 April)

Event Time Altitude Azimuth Distance (km) Brightness Sun altitude
Rises 20:42:35 0° 338° (NNW) 3,415 6.0 -29.7°
Reaches altitude 10° 20:45:38 10° 354° (N) 2,476 5.0 -30.2°
Enters shadow 20:48:14 19° 19° (NNE) 1,905 4.1 -30.6°
